TimeEST,TemperatureF,Dew PointF,Humidity,Sea Level PressureIn,VisibilityMPH,Wind Direction,Wind SpeedMPH,Gust SpeedMPH,PrecipitationIn,Events,Conditions,WindDirDegrees,DateUTC
12:54 AM,28.0,24.1,85,30.09,10.0,South,6.9,16.1,N/A,,Overcast,180,2009-01-18 05:54:00
1:54 AM,28.9,25.0,85,30.06,10.0,Variable,6.9,-,N/A,,Overcast,0,2009-01-18 06:54:00
2:54 AM,30.0,26.1,85,30.03,10.0,South,4.6,-,0.00,,Overcast,190,2009-01-18 07:54:00
3:54 AM,30.0,26.1,85,30.01,10.0,South,6.9,-,N/A,,Overcast,170,2009-01-18 08:54:00
4:54 AM,30.0,27.0,88,29.99,10.0,Calm,Calm,-,N/A,,Overcast,0,2009-01-18 09:54:00
5:12 AM,30.2,26.6,86,29.93,10.0,SE,3.5,-,N/A,,Overcast,130,2009-01-18 10:12:00
5:54 AM,30.0,27.0,88,29.97,10.0,South,4.6,-,N/A,,Overcast,170,2009-01-18 10:54:00
6:01 AM,30.2,26.6,86,29.93,10.0,South,9.2,-,N/A,,Overcast,180,2009-01-18 11:01:00
6:14 AM,30.2,26.6,86,29.92,10.0,SSE,6.9,-,N/A,,Overcast,160,2009-01-18 11:14:00
6:54 AM,30.2,26.6,86,29.91,10.0,South,3.5,-,N/A,,Overcast,180,2009-01-18 11:54:00
7:54 AM,30.0,27.0,88,29.95,9.0,South,4.6,-,0.00,,Overcast,170,2009-01-18 12:54:00
8:54 AM,30.9,27.0,85,29.94,10.0,SE,3.5,-,N/A,,Overcast,140,2009-01-18 13:54:00
9:54 AM,33.1,28.9,85,29.94,10.0,Calm,Calm,-,N/A,,Mostly Cloudy,0,2009-01-18 14:54:00
10:54 AM,36.0,30.0,79,29.90,10.0,Calm,Calm,-,N/A,,Mostly Cloudy,0,2009-01-18 15:54:00
11:54 AM,37.9,30.0,73,29.86,10.0,Calm,Calm,-,N/A,,Clear,0,2009-01-18 16:54:00
12:54 PM,39.0,28.9,67,29.81,10.0,North,5.8,-,N/A,,Clear,350,2009-01-18 17:54:00
1:54 PM,39.9,28.0,63,29.78,10.0,North,8.1,-,N/A,,Mostly Cloudy,350,2009-01-18 18:54:00
2:54 PM,42.1,28.0,58,29.77,10.0,North,10.4,-,N/A,,Scattered Clouds,350,2009-01-18 19:54:00
3:54 PM,44.1,21.0,40,29.76,10.0,West,9.2,16.1,N/A,,Clear,280,2009-01-18 20:54:00
4:54 PM,43.0,19.9,40,29.77,10.0,WSW,10.4,-,N/A,,Clear,250,2009-01-18 21:54:00
5:54 PM,39.9,21.0,47,29.79,10.0,West,5.8,-,N/A,,Scattered Clouds,270,2009-01-18 22:54:00
6:54 PM,37.9,21.0,51,29.79,10.0,Calm,Calm,-,N/A,,Scattered Clouds,0,2009-01-18 23:54:00
7:54 PM,33.1,21.0,61,29.81,10.0,Calm,Calm,-,N/A,,Partly Cloudy,0,2009-01-19 00:54:00
8:54 PM,35.1,23.0,61,29.80,10.0,WNW,5.8,-,N/A,,Overcast,290,2009-01-19 01:54:00
9:54 PM,34.0,24.1,67,29.78,10.0,Calm,Calm,-,N/A,,Overcast,0,2009-01-19 02:54:00
10:54 PM,33.1,24.1,70,29.76,10.0,Calm,Calm,-,N/A,,Overcast,0,2009-01-19 03:54:00
11:54 PM,33.1,24.1,70,29.74,10.0,Calm,Calm,-,N/A,,Mostly Cloudy,0,2009-01-19 04:54:00